CZ-4 DEB, 26310

Orbit data source: Space-Track

CZ-4 DEB, 26310 is space debris in SSO originally from a launch on Thu, 14 Oct 1999 UTC launched from the Taiyaun Space Center, China (TSC). Debris objects in space refer to the collection of defunct objects orbiting the Earth. Examples of debris include non-operational satellites, rocket bodies, and fragments generated from explosions, collisions, or faulty payload assembly.

Loading next visibility...
Identifier
26310, 1999-057GT
Orbit
SSO
Country
Flag of CNCN / PRC
Related business
Manufacturer
Unknown
Mission
Spacecraft
Bus & Motor
Unknown
Mass
Unknown
Launch date (UTC)
1999-10-14 (26 years ago)
Launch vehicle
Unknown
Launch site
Taiyaun Space Center, China (TSC)
Object type
Payload
Rocket body
Debris
Shape & HBR
Unknown shape, 0.1 m
Radar Cross Section
Small (<0.1 m²)

Expand to show TLE details & history
Last TLE update: 16 hours ago

TLE from 16 hours ago
0 CZ-4 DEB
1 26310U 99057GT  25296.63141321  .00001793  00000-0  47558-3 0  9999
2 26310  98.5608 356.5078 0089779  23.5784 130.2833 14.47608569342978
Epoch: 2025-10-23T15:09Z
TLE epoch observation values (Epoch: 2025-10-23T15:09:14.101Z)
Latitude
25.08674°
Longitude
-79.06917°
Altitude
778.162 km
Speed
7.445 km/s
True Right ascension
12h 02m 06s
True Declination
24° 57' 19"
Sunlit
Object was in daylight at epoch
Visualization orbit readout
Latitude
Unknown
Longitude
Unknown
Altitude
Unknown
Speed
Unknown
Apparent Right ascension
Unknown
Apparent Declination
Unknown
Sunlit
N/A
Visualization observer readout
Local Sidereal Time
02:12:02
Azimuth
Unknown
Elevation
Unknown
Doppler factor
Unknown
Orbital elements
Apogee altitude
794.406 km
Perigee altitude
666.763 km
Semi-major axis
7,108.721 km
Eccentricity
0.00898
Inclination
98.5608°
RAAN
356.5078°
Arg. of periapsis
23.5784°
True anomaly
131.06244°
Mean anomaly
130.2833°
Eccentric anomaly
130.67344°
Mean motion
3.62123 °/min
Orbital period
99.41 mins
BSTAR
0.00047558
Loading maneuver chart data...
Computing Atmospheric mass density...

Documentation

Showing up to 5 results
|